Time,TemperatureF,DewpointF,PressureIn,WindDirection,WindDirectionDegrees,WindSpeedMPH,WindSpeedGustMPH,Humidity,HourlyPrecipIn,Conditions,Clouds,dailyrainin,SolarRadiationWatts/m^2,SoftwareType,DateUTC
2013-03-16 00:00:00,42.8,26.4,29.89,North,-999,1.0,3.0,52,0.00,,,0.00,0.00,VWS V14.01,2013-03-16 06:00:00,
2013-03-16 00:05:00,42.5,26.6,29.89,North,-999,0.0,3.0,53,0.00,,,0.00,0.00,VWS V14.01,2013-03-16 06:05:00,
2013-03-16 00:10:00,42.3,26.4,29.89,North,-999,0.0,0.0,53,0.00,,,0.00,0.00,VWS V14.01,2013-03-16 06:10:00,
2013-03-16 00:14:00,42.1,26.2,29.90,North,-999,0.0,0.0,53,0.00,,,0.00,0.00,VWS V14.01,2013-03-16 06:14:00,
2013-03-16 00:19:00,40.9,24.2,29.89,North,-999,6.0,6.0,51,0.00,,,0.00,0.00,VWS V14.01,2013-03-16 06:19:00,
2013-03-16 00:24:00,40.5,25.2,29.89,North,-999,6.0,7.0,54,0.00,,,0.00,0.00,VWS V14.01,2013-03-16 06:24:00,
2013-03-16 00:29:00,40.0,24.3,29.89,North,-999,5.0,5.0,53,0.00,,,0.00,0.00,VWS V14.01,2013-03-16 06:29:00,
2013-03-16 00:34:00,38.5,22.9,29.89,North,-999,9.0,9.0,53,0.00,,,0.00,0.00,VWS V14.01,2013-03-16 06:34:00,
2013-03-16 00:39:00,38.3,22.2,29.89,North,-999,4.0,6.0,52,0.00,,,0.00,0.00,VWS V14.01,2013-03-16 06:39:00,
2013-03-16 00:44:00,38.0,22.9,29.89,North,-999,5.0,6.0,54,0.00,,,0.00,0.00,VWS V14.01,2013-03-16 06:44:00,
2013-03-16 00:49:00,37.4,21.9,29.89,North,-999,3.0,7.0,53,0.00,,,0.00,0.00,VWS V14.01,2013-03-16 06:49:00,
2013-03-16 00:54:00,36.4,21.8,29.89,North,-999,4.0,7.0,55,0.00,,,0.00,0.00,VWS V14.01,2013-03-16 06:54:00,
2013-03-16 00:59:00,36.3,22.5,29.89,North,-999,4.0,5.0,57,0.00,,,0.00,0.00,VWS V14.01,2013-03-16 06:59:00,
2013-03-16 01:04:00,36.9,23.5,29.89,North,-999,0.0,5.0,58,0.00,,,0.00,0.00,VWS V14.01,2013-03-16 07:04:00,
2013-03-16 01:09:00,37.3,24.3,29.89,North,-999,4.0,5.0,59,0.00,,,0.00,0.00,VWS V14.01,2013-03-16 07:09:00,
2013-03-16 01:14:00,38.1,25.1,29.89,North,-999,9.0,10.0,59,0.00,,,0.00,0.00,VWS V14.01,2013-03-16 07:14:00,
2013-03-16 01:19:00,39.8,26.7,29.89,North,-999,11.0,12.0,59,0.00,,,0.00,0.00,VWS V14.01,2013-03-16 07:19:00,
2013-03-16 01:24:00,40.4,26.8,29.88,North,-999,10.0,13.0,58,0.00,,,0.00,0.00,VWS V14.01,2013-03-16 07:24:00,
2013-03-16 01:29:00,40.3,26.7,29.88,North,-999,12.0,14.0,58,0.00,,,0.00,0.00,VWS V14.01,2013-03-16 07:29:00,
2013-03-16 01:34:00,40.1,26.5,29.88,North,-999,10.0,14.0,58,0.00,,,0.00,0.00,VWS V14.01,2013-03-16 07:34:00,
2013-03-16 01:39:00,40.3,27.1,29.88,North,-999,10.0,11.0,59,0.00,,,0.00,0.00,VWS V14.01,2013-03-16 07:39:00,
2013-03-16 01:44:00,40.0,26.4,29.88,North,-999,10.0,11.0,58,0.00,,,0.00,0.00,VWS V14.01,2013-03-16 07:44:00,
2013-03-16 01:49:00,39.6,26.1,29.88,North,-999,7.0,8.0,58,0.00,,,0.00,0.00,VWS V14.01,2013-03-16 07:49:00,
2013-03-16 01:54:00,38.7,25.2,29.88,North,-999,6.0,9.0,58,0.00,,,0.00,0.00,VWS V14.01,2013-03-16 07:54:00,
2013-03-16 01:59:00,38.1,25.1,29.88,North,-999,6.0,7.0,59,0.00,,,0.00,0.00,VWS V14.01,2013-03-16 07:59:00,
2013-03-16 02:04:00,38.0,25.0,29.88,North,-999,7.0,7.0,59,0.00,,,0.00,0.00,VWS V14.01,2013-03-16 08:04:00,
2013-03-16 02:09:00,38.1,25.1,29.88,North,-999,6.0,7.0,59,0.00,,,0.00,0.00,VWS V14.01,2013-03-16 08:09:00,
2013-03-16 02:14:00,38.7,26.4,29.88,North,-999,9.0,10.0,61,0.00,,,0.00,0.00,VWS V14.01,2013-03-16 08:14:00,
2013-03-16 02:19:00,39.8,27.1,29.88,North,-999,6.0,9.0,60,0.00,,,0.00,0.00,VWS V14.01,2013-03-16 08:19:00,
2013-03-16 02:24:00,40.4,26.8,29.88,North,-999,7.0,9.0,58,0.00,,,0.00,0.00,VWS V14.01,2013-03-16 08:24:00,
2013-03-16 02:29:00,40.5,26.0,29.88,North,-999,7.0,7.0,56,0.00,,,0.00,0.00,VWS V14.01,2013-03-16 08:29:00,
2013-03-16 02:34:00,39.7,26.6,29.88,North,-999,11.0,13.0,59,0.00,,,0.00,0.00,VWS V14.01,2013-03-16 08:34:00,
2013-03-16 02:39:00,40.2,27.0,29.88,North,-999,8.0,10.0,59,0.00,,,0.00,0.00,VWS V14.01,2013-03-16 08:39:00,
2013-03-16 02:44:00,40.7,27.1,29.88,North,-999,6.0,11.0,58,0.00,,,0.00,0.00,VWS V14.01,2013-03-16 08:44:00,
2013-03-16 02:49:00,40.5,26.9,29.88,North,-999,6.0,9.0,58,0.00,,,0.00,0.00,VWS V14.01,2013-03-16 08:49:00,
2013-03-16 02:54:00,40.2,26.2,29.88,North,-999,6.0,9.0,57,0.00,,,0.00,0.00,VWS V14.01,2013-03-16 08:54:00,
2013-03-16 02:59:00,39.8,26.7,29.87,North,-999,7.0,8.0,59,0.00,,,0.00,0.00,VWS V14.01,2013-03-16 08:59:00,
2013-03-16 03:04:00,39.6,26.9,29.87,North,-999,7.0,9.0,60,0.00,,,0.00,0.00,VWS V14.01,2013-03-16 09:04:00,
2013-03-16 03:09:00,39.7,27.0,29.87,North,-999,7.0,7.0,60,0.00,,,0.00,0.00,VWS V14.01,2013-03-16 09:09:00,
2013-03-16 03:14:00,39.5,26.4,29.87,North,-999,5.0,9.0,59,0.00,,,0.00,0.00,VWS V14.01,2013-03-16 09:14:00,
2013-03-16 03:19:00,39.2,26.1,29.87,North,-999,5.0,6.0,59,0.00,,,0.00,0.00,VWS V14.01,2013-03-16 09:19:00,
2013-03-16 03:24:00,39.1,26.0,29.87,North,-999,3.0,6.0,59,0.00,,,0.00,0.00,VWS V14.01,2013-03-16 09:24:00,
2013-03-16 03:29:00,39.6,26.5,29.87,North,-999,5.0,6.0,59,0.00,,,0.00,0.00,VWS V14.01,2013-03-16 09:29:00,
2013-03-16 03:34:00,39.8,26.2,29.87,North,-999,7.0,9.0,58,0.00,,,0.00,0.00,VWS V14.01,2013-03-16 09:34:00,
2013-03-16 03:39:00,40.1,26.9,29.87,North,-999,8.0,10.0,59,0.00,,,0.00,0.00,VWS V14.01,2013-03-16 09:39:00,
2013-03-16 03:44:00,40.3,26.7,29.87,North,-999,6.0,10.0,58,0.00,,,0.00,0.00,VWS V14.01,2013-03-16 09:44:00,
2013-03-16 03:49:00,40.0,26.4,29.86,North,-999,5.0,6.0,58,0.00,,,0.00,0.00,VWS V14.01,2013-03-16 09:49:00,
2013-03-16 03:54:00,39.9,26.8,29.86,North,-999,5.0,7.0,59,0.00,,,0.00,0.00,VWS V14.01,2013-03-16 09:54:00,
2013-03-16 03:59:00,39.7,26.6,29.86,North,-999,5.0,7.0,59,0.00,,,0.00,0.00,VWS V14.01,2013-03-16 09:59:00,
2013-03-16 04:04:00,40.0,26.8,29.86,North,-999,5.0,9.0,59,0.00,,,0.00,0.00,VWS V14.01,2013-03-16 10:04:00,
2013-03-16 04:09:00,39.7,26.1,29.86,North,-999,6.0,7.0,58,0.00,,,0.00,0.00,VWS V14.01,2013-03-16 10:09:00,
2013-03-16 04:14:00,39.4,26.3,29.86,North,-999,7.0,10.0,59,0.00,,,0.00,0.00,VWS V14.01,2013-03-16 10:14:00,
2013-03-16 04:19:00,39.1,26.0,29.86,North,-999,9.0,11.0,59,0.00,,,0.00,0.00,VWS V14.01,2013-03-16 10:19:00,
2013-03-16 04:24:00,39.2,26.5,29.86,North,-999,7.0,11.0,60,0.00,,,0.00,0.00,VWS V14.01,2013-03-16 10:24:00,
2013-03-16 04:29:00,39.4,26.7,29.86,North,-999,6.0,7.0,60,0.00,,,0.00,0.00,VWS V14.01,2013-03-16 10:29:00,
2013-03-16 04:34:00,39.5,26.8,29.85,North,-999,9.0,11.0,60,0.00,,,0.00,0.00,VWS V14.01,2013-03-16 10:34:00,
2013-03-16 04:39:00,39.5,26.8,29.85,North,-999,9.0,10.0,60,0.00,,,0.00,0.00,VWS V14.01,2013-03-16 10:39:00,
2013-03-16 04:44:00,39.6,26.9,29.85,North,-999,6.0,10.0,60,0.00,,,0.00,0.00,VWS V14.01,2013-03-16 10:44:00,
2013-03-16 04:49:00,39.5,26.8,29.85,North,-999,9.0,10.0,60,0.00,,,0.00,0.00,VWS V14.01,2013-03-16 10:49:00,
2013-03-16 04:54:00,39.6,26.9,29.85,North,-999,6.0,13.0,60,0.00,,,0.00,0.00,VWS V14.01,2013-03-16 10:54:00,
2013-03-16 04:59:00,39.6,26.9,29.85,North,-999,7.0,10.0,60,0.00,,,0.00,0.00,VWS V14.01,2013-03-16 10:59:00,
2013-03-16 05:04:00,39.8,27.1,29.85,North,-999,10.0,12.0,60,0.00,,,0.00,0.00,VWS V14.01,2013-03-16 11:04:00,
2013-03-16 05:09:00,39.9,27.2,29.85,North,-999,9.0,11.0,60,0.00,,,0.00,0.00,VWS V14.01,2013-03-16 11:09:00,
2013-03-16 05:14:00,40.1,27.4,29.85,North,-999,7.0,12.0,60,0.00,,,0.00,0.00,VWS V14.01,2013-03-16 11:14:00,
2013-03-16 05:19:00,40.1,27.4,29.85,North,-999,9.0,10.0,60,0.00,,,0.00,0.00,VWS V14.01,2013-03-16 11:19:00,
2013-03-16 05:24:00,39.9,27.2,29.85,North,-999,6.0,11.0,60,0.00,,,0.00,0.00,VWS V14.01,2013-03-16 11:24:00,
2013-03-16 05:29:00,39.7,27.0,29.85,North,-999,8.0,11.0,60,0.00,,,0.00,0.00,VWS V14.01,2013-03-16 11:29:00,
2013-03-16 05:34:00,39.6,26.9,29.85,North,-999,7.0,11.0,60,0.00,,,0.00,0.00,VWS V14.01,2013-03-16 11:34:00,
2013-03-16 05:39:00,39.7,28.1,29.86,North,-999,11.0,11.0,63,0.00,,,0.00,0.00,VWS V14.01,2013-03-16 11:39:00,
2013-03-16 05:44:00,39.9,29.1,29.85,North,-999,7.0,11.0,65,0.00,,,0.00,0.00,VWS V14.01,2013-03-16 11:44:00,
2013-03-16 05:49:00,40.0,29.2,29.85,North,-999,5.0,5.0,65,0.00,,,0.00,0.00,VWS V14.01,2013-03-16 11:49:00,
2013-03-16 05:54:00,40.2,29.0,29.85,North,-999,8.0,11.0,64,0.00,,,0.00,0.00,VWS V14.01,2013-03-16 11:54:00,
2013-03-16 05:59:00,40.4,29.6,29.85,North,-999,5.0,9.0,65,0.00,,,0.00,0.00,VWS V14.01,2013-03-16 11:59:00,
2013-03-16 06:04:00,40.7,31.0,29.85,North,-999,7.0,9.0,68,0.00,,,0.00,0.00,VWS V14.01,2013-03-16 12:04:00,
2013-03-16 06:09:00,40.7,31.0,29.85,North,-999,0.0,3.0,68,0.00,,,0.00,0.00,VWS V14.01,2013-03-16 12:09:00,
2013-03-16 06:14:00,40.5,30.4,29.85,North,-999,0.0,3.0,67,0.00,,,0.00,0.00,VWS V14.01,2013-03-16 12:14:00,
2013-03-16 06:19:00,40.0,29.6,29.85,North,-999,0.0,0.0,66,0.00,,,0.00,0.00,VWS V14.01,2013-03-16 12:19:00,
2013-03-16 06:24:00,39.8,30.1,29.85,North,-999,0.0,0.0,68,0.00,,,0.00,0.00,VWS V14.01,2013-03-16 12:24:00,
2013-03-16 06:29:00,39.6,29.6,29.85,North,-999,1.0,4.0,67,0.00,,,0.00,0.00,VWS V14.01,2013-03-16 12:29:00,
2013-03-16 06:34:00,39.6,30.3,29.85,North,-999,0.0,4.0,69,0.00,,,0.00,0.00,VWS V14.01,2013-03-16 12:34:00,
2013-03-16 06:39:00,39.8,30.5,29.85,North,-999,4.0,5.0,69,0.00,,,0.00,0.00,VWS V14.01,2013-03-16 12:39:00,
2013-03-16 06:44:00,39.9,30.9,29.85,North,-999,0.0,5.0,70,0.00,,,0.00,0.00,VWS V14.01,2013-03-16 12:44:00,
2013-03-16 06:49:00,39.8,31.5,29.85,North,-999,2.0,2.0,72,0.00,,,0.00,0.00,VWS V14.01,2013-03-16 12:49:00,
2013-03-16 06:54:00,39.6,31.3,29.84,North,-999,3.0,5.0,72,0.00,,,0.00,0.00,VWS V14.01,2013-03-16 12:54:00,
2013-03-16 06:59:00,39.4,31.5,29.84,North,-999,0.0,0.0,73,0.00,,,0.00,0.00,VWS V14.01,2013-03-16 12:59:00,
2013-03-16 07:03:00,39.3,31.7,29.84,North,-999,0.0,0.0,74,0.00,,,0.00,0.00,VWS V14.01,2013-03-16 13:03:00,
2013-03-16 07:08:00,39.0,31.4,29.84,North,-999,0.0,0.0,74,0.00,,,0.00,0.00,VWS V14.01,2013-03-16 13:08:00,
2013-03-16 07:14:00,38.5,31.0,29.84,North,-999,0.0,0.0,74,0.00,,,0.00,0.00,VWS V14.01,2013-03-16 13:14:00,
2013-03-16 07:18:00,38.2,31.0,29.84,North,-999,0.0,0.0,75,0.00,,,0.00,0.00,VWS V14.01,2013-03-16 13:18:00,
2013-03-16 07:23:00,38.0,31.4,29.84,North,-999,0.0,0.0,77,0.00,,,0.00,0.00,VWS V14.01,2013-03-16 13:23:00,
2013-03-16 07:29:00,37.9,31.7,29.84,North,-999,0.0,0.0,78,0.00,,,0.00,0.00,VWS V14.01,2013-03-16 13:29:00,
2013-03-16 07:33:00,37.7,31.1,29.84,North,-999,0.0,0.0,77,0.00,,,0.00,5.00,VWS V14.01,2013-03-16 13:33:00,
2013-03-16 07:39:00,37.5,30.6,29.84,North,-999,0.0,0.0,76,0.00,,,0.00,9.00,VWS V14.01,2013-03-16 13:39:00,
2013-03-16 07:43:00,37.3,30.8,29.84,North,-999,0.0,0.0,77,0.00,,,0.00,12.00,VWS V14.01,2013-03-16 13:43:00,
2013-03-16 07:48:00,37.1,30.6,29.84,North,-999,0.0,0.0,77,0.00,,,0.00,18.00,VWS V14.01,2013-03-16 13:48:00,
2013-03-16 07:53:00,36.9,30.4,29.84,North,-999,0.0,0.0,77,0.00,,,0.00,21.00,VWS V14.01,2013-03-16 13:53:00,
2013-03-16 07:58:00,36.6,30.1,29.84,North,-999,0.0,0.0,77,0.00,,,0.00,26.00,VWS V14.01,2013-03-16 13:58:00,
2013-03-16 08:03:00,36.6,30.4,29.84,North,-999,0.0,0.0,78,0.00,,,0.00,28.00,VWS V14.01,2013-03-16 14:03:00,
2013-03-16 08:08:00,36.6,30.4,29.84,North,-999,0.0,0.0,78,0.00,,,0.00,37.00,VWS V14.01,2013-03-16 14:08:00,
2013-03-16 08:13:00,36.6,30.4,29.84,North,-999,0.0,0.0,78,0.00,,,0.00,53.00,VWS V14.01,2013-03-16 14:13:00,
2013-03-16 08:18:00,36.7,30.5,29.84,North,-999,0.0,0.0,78,0.00,,,0.00,63.00,VWS V14.01,2013-03-16 14:18:00,
2013-03-16 08:23:00,36.8,29.6,29.84,North,-999,0.0,0.0,75,0.00,,,0.00,70.00,VWS V14.01,2013-03-16 14:23:00,
2013-03-16 08:28:00,36.9,29.7,29.85,North,-999,0.0,0.0,75,0.00,,,0.00,67.00,VWS V14.01,2013-03-16 14:28:00,
2013-03-16 08:33:00,37.0,29.2,29.84,North,-999,0.0,0.0,73,0.00,,,0.00,62.00,VWS V14.01,2013-03-16 14:33:00,
2013-03-16 08:38:00,37.1,29.6,29.84,North,-999,0.0,0.0,74,0.00,,,0.00,69.00,VWS V14.01,2013-03-16 14:38:00,
2013-03-16 08:43:00,37.3,29.5,29.84,North,-999,0.0,0.0,73,0.00,,,0.00,77.00,VWS V14.01,2013-03-16 14:43:00,
2013-03-16 08:48:00,37.4,29.2,29.84,North,-999,0.0,0.0,72,0.00,,,0.00,84.00,VWS V14.01,2013-03-16 14:48:00,
2013-03-16 08:53:00,37.7,29.8,29.84,North,-999,0.0,0.0,73,0.00,,,0.00,100.00,VWS V14.01,2013-03-16 14:53:00,
2013-03-16 08:58:00,38.0,29.8,29.84,North,-999,0.0,0.0,72,0.00,,,0.00,111.00,VWS V14.01,2013-03-16 14:58:00,
2013-03-16 09:03:00,38.2,29.6,29.84,North,-999,0.0,0.0,71,0.00,,,0.00,105.00,VWS V14.01,2013-03-16 15:03:00,
2013-03-16 09:08:00,38.5,30.3,29.84,North,-999,0.0,0.0,72,0.00,,,0.00,98.00,VWS V14.01,2013-03-16 15:08:00,
2013-03-16 09:13:00,38.8,30.9,29.84,North,-999,0.0,0.0,73,0.00,,,0.00,113.00,VWS V14.01,2013-03-16 15:13:00,
2013-03-16 09:18:00,39.1,31.5,29.85,North,-999,0.0,0.0,74,0.00,,,0.00,118.00,VWS V14.01,2013-03-16 15:18:00,
2013-03-16 09:23:00,39.3,31.7,29.85,North,-999,0.0,0.0,74,0.00,,,0.00,118.00,VWS V14.01,2013-03-16 15:23:00,
2013-03-16 09:28:00,39.5,31.9,29.85,North,-999,0.0,0.0,74,0.00,,,0.00,102.00,VWS V14.01,2013-03-16 15:28:00,
2013-03-16 09:33:00,39.7,32.1,29.85,North,-999,0.0,0.0,74,0.00,,,0.00,77.00,VWS V14.01,2013-03-16 15:33:00,
2013-03-16 09:38:00,40.1,32.8,29.85,North,-999,4.0,4.0,75,0.00,,,0.00,76.00,VWS V14.01,2013-03-16 15:38:00,
2013-03-16 09:43:00,40.7,33.1,29.84,North,-999,3.0,9.0,74,0.00,,,0.00,97.00,VWS V14.01,2013-03-16 15:43:00,
2013-03-16 09:48:00,41.3,33.0,29.84,North,-999,4.0,5.0,72,0.00,,,0.00,144.00,VWS V14.01,2013-03-16 15:48:00,
2013-03-16 09:53:00,41.9,33.5,29.84,North,-999,11.0,12.0,72,0.00,,,0.00,213.00,VWS V14.01,2013-03-16 15:53:00,
2013-03-16 09:58:00,42.2,32.4,29.84,North,-999,9.0,9.0,68,0.00,,,0.00,167.00,VWS V14.01,2013-03-16 15:58:00,
2013-03-16 10:03:00,42.6,33.2,29.84,North,-999,7.0,12.0,69,0.00,,,0.00,151.00,VWS V14.01,2013-03-16 16:03:00,
2013-03-16 10:08:00,42.7,32.9,29.84,North,-999,6.0,6.0,68,0.00,,,0.00,149.00,VWS V14.01,2013-03-16 16:08:00,
2013-03-16 10:13:00,42.9,32.7,29.84,North,-999,9.0,9.0,67,0.00,,,0.00,155.00,VWS V14.01,2013-03-16 16:13:00,
2013-03-16 10:18:00,43.2,33.0,29.84,North,-999,9.0,10.0,67,0.00,,,0.00,155.00,VWS V14.01,2013-03-16 16:18:00,
2013-03-16 10:23:00,43.0,32.8,29.83,North,-999,10.0,11.0,67,0.00,,,0.00,200.00,VWS V14.01,2013-03-16 16:23:00,
2013-03-16 10:28:00,42.9,32.7,29.84,North,-999,7.0,10.0,67,0.00,,,0.00,229.00,VWS V14.01,2013-03-16 16:28:00,
2013-03-16 10:33:00,43.3,33.1,29.84,North,-999,6.0,11.0,67,0.00,,,0.00,338.00,VWS V14.01,2013-03-16 16:33:00,
2013-03-16 10:38:00,43.8,33.6,29.84,North,-999,10.0,10.0,67,0.00,,,0.00,462.00,VWS V14.01,2013-03-16 16:38:00,
2013-03-16 10:43:00,44.1,33.5,29.84,North,-999,6.0,11.0,66,0.00,,,0.00,563.00,VWS V14.01,2013-03-16 16:43:00,
2013-03-16 10:48:00,44.6,32.8,29.83,North,-999,7.0,7.0,63,0.00,,,0.00,446.00,VWS V14.01,2013-03-16 16:48:00,
2013-03-16 10:53:00,45.0,32.8,29.83,North,-999,6.0,11.0,62,0.00,,,0.00,225.00,VWS V14.01,2013-03-16 16:53:00,
2013-03-16 10:58:00,45.2,32.2,29.83,North,-999,10.0,11.0,60,0.00,,,0.00,207.00,VWS V14.01,2013-03-16 16:58:00,
2013-03-16 11:03:00,44.9,32.7,29.83,North,-999,7.0,13.0,62,0.00,,,0.00,408.00,VWS V14.01,2013-03-16 17:03:00,
2013-03-16 11:08:00,45.0,32.4,29.83,North,-999,6.0,9.0,61,0.00,,,0.00,287.00,VWS V14.01,2013-03-16 17:08:00,
2013-03-16 11:13:00,45.5,32.0,29.83,North,-999,6.0,9.0,59,0.00,,,0.00,427.00,VWS V14.01,2013-03-16 17:13:00,
2013-03-16 11:18:00,46.2,32.2,29.82,North,-999,9.0,9.0,58,0.00,,,0.00,540.00,VWS V14.01,2013-03-16 17:18:00,
2013-03-16 11:23:00,46.5,31.7,29.82,North,-999,10.0,12.0,56,0.00,,,0.00,178.00,VWS V14.01,2013-03-16 17:23:00,
2013-03-16 11:28:00,46.5,30.8,29.82,North,-999,0.0,4.0,54,0.00,,,0.00,617.00,VWS V14.01,2013-03-16 17:28:00,
2013-03-16 11:33:00,46.9,30.7,29.82,North,-999,2.0,7.0,53,0.00,,,0.00,624.00,VWS V14.01,2013-03-16 17:33:00,
2013-03-16 11:38:00,47.7,30.5,29.82,North,-999,0.0,8.0,51,0.00,,,0.00,635.00,VWS V14.01,2013-03-16 17:38:00,
2013-03-16 11:43:00,48.4,30.1,29.82,North,-999,6.0,10.0,49,0.00,,,0.00,645.00,VWS V14.01,2013-03-16 17:43:00,
2013-03-16 11:48:00,48.7,30.4,29.82,North,-999,5.0,5.0,49,0.00,,,0.00,494.00,VWS V14.01,2013-03-16 17:48:00,
2013-03-16 11:53:00,48.5,29.7,29.82,North,-999,6.0,11.0,48,0.00,,,0.00,654.00,VWS V14.01,2013-03-16 17:53:00,
2013-03-16 11:58:00,48.1,29.9,29.81,North,-999,5.0,6.0,49,0.00,,,0.00,668.00,VWS V14.01,2013-03-16 17:58:00,
2013-03-16 12:03:00,48.4,30.1,29.81,North,-999,4.0,10.0,49,0.00,,,0.00,668.00,VWS V14.01,2013-03-16 18:03:00,
2013-03-16 12:08:00,48.2,30.0,29.81,North,-999,4.0,5.0,49,0.00,,,0.00,673.00,VWS V14.01,2013-03-16 18:08:00,
2013-03-16 12:13:00,48.7,30.4,29.81,North,-999,0.0,9.0,49,0.00,,,0.00,710.00,VWS V14.01,2013-03-16 18:13:00,
2013-03-16 12:18:00,49.2,29.9,29.81,North,-999,5.0,5.0,47,0.00,,,0.00,693.00,VWS V14.01,2013-03-16 18:18:00,
2013-03-16 12:23:00,48.9,29.6,29.81,North,-999,0.0,11.0,47,0.00,,,0.00,664.00,VWS V14.01,2013-03-16 18:23:00,
2013-03-16 12:28:00,49.0,29.7,29.81,North,-999,4.0,10.0,47,0.00,,,0.00,701.00,VWS V14.01,2013-03-16 18:28:00,
2013-03-16 12:33:00,49.6,29.7,29.80,North,-999,1.0,11.0,46,0.00,,,0.00,490.00,VWS V14.01,2013-03-16 18:33:00,
2013-03-16 12:38:00,49.8,29.9,29.80,North,-999,0.0,0.0,46,0.00,,,0.00,708.00,VWS V14.01,2013-03-16 18:38:00,
2013-03-16 12:43:00,50.3,29.8,29.80,North,-999,6.0,12.0,45,0.00,,,0.00,715.00,VWS V14.01,2013-03-16 18:43:00,
2013-03-16 12:48:00,50.5,29.4,29.80,North,-999,0.0,0.0,44,0.00,,,0.00,722.00,VWS V14.01,2013-03-16 18:48:00,
2013-03-16 12:53:00,50.5,29.4,29.80,North,-999,6.0,10.0,44,0.00,,,0.00,717.00,VWS V14.01,2013-03-16 18:53:00,
2013-03-16 12:58:00,50.5,29.4,29.80,North,-999,2.0,3.0,44,0.00,,,0.00,717.00,VWS V14.01,2013-03-16 18:58:00,
2013-03-16 13:03:00,50.6,29.5,29.79,North,-999,6.0,9.0,44,0.00,,,0.00,715.00,VWS V14.01,2013-03-16 19:03:00,
2013-03-16 13:08:00,50.2,29.1,29.79,North,-999,2.0,4.0,44,0.00,,,0.00,726.00,VWS V14.01,2013-03-16 19:08:00,
2013-03-16 13:13:00,50.0,29.0,29.79,North,-999,7.0,14.0,44,0.00,,,0.00,729.00,VWS V14.01,2013-03-16 19:13:00,
2013-03-16 13:18:00,50.3,29.2,29.78,North,-999,0.0,0.0,44,0.00,,,0.00,738.00,VWS V14.01,2013-03-16 19:18:00,
2013-03-16 13:23:00,50.6,29.5,29.78,North,-999,4.0,7.0,44,0.00,,,0.00,677.00,VWS V14.01,2013-03-16 19:23:00,
2013-03-16 13:28:00,50.8,29.7,29.78,North,-999,4.0,4.0,44,0.00,,,0.00,749.00,VWS V14.01,2013-03-16 19:28:00,
2013-03-16 13:33:00,51.0,29.9,29.78,North,-999,7.0,7.0,44,0.00,,,0.00,737.00,VWS V14.01,2013-03-16 19:33:00,
2013-03-16 13:38:00,50.5,29.4,29.78,North,-999,5.0,5.0,44,0.00,,,0.00,740.00,VWS V14.01,2013-03-16 19:38:00,
2013-03-16 13:43:00,50.8,29.7,29.77,North,-999,4.0,10.0,44,0.00,,,0.00,745.00,VWS V14.01,2013-03-16 19:43:00,
2013-03-16 13:48:00,50.7,29.0,29.77,North,-999,2.0,4.0,43,0.00,,,0.00,761.00,VWS V14.01,2013-03-16 19:48:00,
2013-03-16 13:53:00,50.9,29.2,29.77,North,-999,10.0,14.0,43,0.00,,,0.00,605.00,VWS V14.01,2013-03-16 19:53:00,
2013-03-16 13:58:00,50.6,29.0,29.76,North,-999,6.0,7.0,43,0.00,,,0.00,777.00,VWS V14.01,2013-03-16 19:58:00,
2013-03-16 14:03:00,51.2,29.5,29.77,North,-999,2.0,8.0,43,0.00,,,0.00,786.00,VWS V14.01,2013-03-16 20:03:00,
2013-03-16 14:08:00,51.8,29.5,29.76,North,-999,9.0,11.0,42,0.00,,,0.00,707.00,VWS V14.01,2013-03-16 20:08:00,
2013-03-16 14:13:00,51.7,29.4,29.76,North,-999,4.0,12.0,42,0.00,,,0.00,842.00,VWS V14.01,2013-03-16 20:13:00,
2013-03-16 14:18:00,51.8,29.5,29.76,North,-999,4.0,5.0,42,0.00,,,0.00,387.00,VWS V14.01,2013-03-16 20:18:00,
2013-03-16 14:23:00,51.5,29.2,29.76,North,-999,4.0,9.0,42,0.00,,,0.00,301.00,VWS V14.01,2013-03-16 20:23:00,
2013-03-16 14:28:00,51.5,29.8,29.75,North,-999,7.0,9.0,43,0.00,,,0.00,830.00,VWS V14.01,2013-03-16 20:28:00,
2013-03-16 14:33:00,51.6,29.3,29.75,North,-999,3.0,9.0,42,0.00,,,0.00,837.00,VWS V14.01,2013-03-16 20:33:00,
2013-03-16 14:38:00,51.8,29.5,29.74,North,-999,9.0,11.0,42,0.00,,,0.00,729.00,VWS V14.01,2013-03-16 20:38:00,
2013-03-16 14:43:00,52.2,29.2,29.74,North,-999,9.0,11.0,41,0.00,,,0.00,605.00,VWS V14.01,2013-03-16 20:43:00,
2013-03-16 14:48:00,52.1,29.1,29.74,North,-999,7.0,10.0,41,0.00,,,0.00,759.00,VWS V14.01,2013-03-16 20:48:00,
2013-03-16 14:53:00,51.7,28.2,29.74,North,-999,6.0,10.0,40,0.00,,,0.00,241.00,VWS V14.01,2013-03-16 20:53:00,
2013-03-16 14:58:00,51.8,28.9,29.74,North,-999,6.0,8.0,41,0.00,,,0.00,283.00,VWS V14.01,2013-03-16 20:58:00,
2013-03-16 15:03:00,51.7,28.2,29.73,North,-999,7.0,16.0,40,0.00,,,0.00,120.00,VWS V14.01,2013-03-16 21:03:00,
2013-03-16 15:08:00,51.3,27.8,29.73,North,-999,6.0,6.0,40,0.00,,,0.00,111.00,VWS V14.01,2013-03-16 21:08:00,
2013-03-16 15:13:00,51.0,27.5,29.73,North,-999,5.0,12.0,40,0.00,,,0.00,114.00,VWS V14.01,2013-03-16 21:13:00,
2013-03-16 15:18:00,50.8,28.0,29.73,North,-999,9.0,9.0,41,0.00,,,0.00,142.00,VWS V14.01,2013-03-16 21:18:00,
2013-03-16 15:23:00,50.8,28.0,29.73,North,-999,9.0,11.0,41,0.00,,,0.00,135.00,VWS V14.01,2013-03-16 21:23:00,
2013-03-16 15:28:00,50.7,29.6,29.73,North,-999,3.0,6.0,44,0.00,,,0.00,88.00,VWS V14.01,2013-03-16 21:28:00,
2013-03-16 15:33:00,50.3,29.2,29.73,North,-999,0.0,13.0,44,0.00,,,0.00,84.00,VWS V14.01,2013-03-16 21:33:00,
2013-03-16 15:38:00,50.1,29.0,29.73,North,-999,4.0,7.0,44,0.00,,,0.00,162.00,VWS V14.01,2013-03-16 21:38:00,
2013-03-16 15:43:00,50.1,29.6,29.73,North,-999,5.0,9.0,45,0.00,,,0.00,336.00,VWS V14.01,2013-03-16 21:43:00,
2013-03-16 15:48:00,50.4,29.3,29.73,North,-999,6.0,7.0,44,0.00,,,0.00,422.00,VWS V14.01,2013-03-16 21:48:00,
2013-03-16 15:53:00,50.8,29.1,29.73,North,-999,6.0,8.0,43,0.00,,,0.00,325.00,VWS V14.01,2013-03-16 21:53:00,
2013-03-16 15:58:00,51.0,28.7,29.72,North,-999,10.0,10.0,42,0.00,,,0.00,339.00,VWS V14.01,2013-03-16 21:58:00,
2013-03-16 16:03:00,51.0,28.7,29.73,North,-999,9.0,12.0,42,0.00,,,0.00,283.00,VWS V14.01,2013-03-16 22:03:00,
2013-03-16 16:08:00,50.9,28.1,29.72,North,-999,3.0,10.0,41,0.00,,,0.00,237.00,VWS V14.01,2013-03-16 22:08:00,
2013-03-16 16:13:00,51.0,28.1,29.72,North,-999,5.0,10.0,41,0.00,,,0.00,265.00,VWS V14.01,2013-03-16 22:13:00,
2013-03-16 16:18:00,51.0,28.1,29.72,North,-999,4.0,6.0,41,0.00,,,0.00,271.00,VWS V14.01,2013-03-16 22:18:00,
2013-03-16 16:23:00,51.3,28.4,29.72,North,-999,4.0,12.0,41,0.00,,,0.00,255.00,VWS V14.01,2013-03-16 22:23:00,
2013-03-16 16:28:00,51.2,28.3,29.72,North,-999,7.0,7.0,41,0.00,,,0.00,213.00,VWS V14.01,2013-03-16 22:28:00,
2013-03-16 16:33:00,51.2,27.7,29.72,North,-999,4.0,12.0,40,0.00,,,0.00,255.00,VWS V14.01,2013-03-16 22:33:00,
2013-03-16 16:38:00,51.3,27.8,29.72,North,-999,3.0,4.0,40,0.00,,,0.00,221.00,VWS V14.01,2013-03-16 22:38:00,
2013-03-16 16:43:00,51.5,27.4,29.72,North,-999,2.0,12.0,39,0.00,,,0.00,338.00,VWS V14.01,2013-03-16 22:43:00,
2013-03-16 16:48:00,51.5,27.4,29.71,North,-999,6.0,7.0,39,0.00,,,0.00,401.00,VWS V14.01,2013-03-16 22:48:00,
2013-03-16 16:53:00,51.6,27.5,29.71,North,-999,2.0,10.0,39,0.00,,,0.00,359.00,VWS V14.01,2013-03-16 22:53:00,
2013-03-16 16:58:00,51.8,28.3,29.71,North,-999,6.0,7.0,40,0.00,,,0.00,425.00,VWS V14.01,2013-03-16 22:58:00,
2013-03-16 17:03:00,51.8,27.6,29.71,North,-999,5.0,9.0,39,0.00,,,0.00,181.00,VWS V14.01,2013-03-16 23:03:00,
2013-03-16 17:08:00,51.8,27.6,29.71,North,-999,10.0,10.0,39,0.00,,,0.00,311.00,VWS V14.01,2013-03-16 23:08:00,
2013-03-16 17:13:00,51.7,27.6,29.70,North,-999,9.0,13.0,39,0.00,,,0.00,425.00,VWS V14.01,2013-03-16 23:13:00,
2013-03-16 17:18:00,51.7,28.2,29.70,North,-999,5.0,6.0,40,0.00,,,0.00,418.00,VWS V14.01,2013-03-16 23:18:00,
2013-03-16 17:23:00,52.0,27.8,29.70,North,-999,6.0,12.0,39,0.00,,,0.00,350.00,VWS V14.01,2013-03-16 23:23:00,
2013-03-16 17:28:00,52.3,28.1,29.70,North,-999,4.0,6.0,39,0.00,,,0.00,304.00,VWS V14.01,2013-03-16 23:28:00,
2013-03-16 17:33:00,52.1,27.9,29.70,North,-999,11.0,13.0,39,0.00,,,0.00,285.00,VWS V14.01,2013-03-16 23:33:00,
2013-03-16 17:38:00,52.0,27.8,29.70,North,-999,13.0,13.0,39,0.00,,,0.00,251.00,VWS V14.01,2013-03-16 23:38:00,
2013-03-16 17:43:00,52.0,27.8,29.70,North,-999,10.0,13.0,39,0.00,,,0.00,244.00,VWS V14.01,2013-03-16 23:43:00,
2013-03-16 17:48:00,52.0,27.8,29.70,North,-999,5.0,6.0,39,0.00,,,0.00,223.00,VWS V14.01,2013-03-16 23:48:00,
2013-03-16 17:53:00,51.9,27.7,29.70,North,-999,9.0,10.0,39,0.00,,,0.00,195.00,VWS V14.01,2013-03-16 23:53:00,
2013-03-16 17:58:00,51.8,27.6,29.70,North,-999,6.0,8.0,39,0.00,,,0.00,142.00,VWS V14.01,2013-03-16 23:58:00,
2013-03-16 18:03:00,51.5,27.4,29.69,North,-999,3.0,11.0,39,0.00,,,0.00,54.00,VWS V14.01,2013-03-17 00:03:00,
2013-03-16 18:08:00,51.4,27.9,29.69,North,-999,3.0,5.0,40,0.00,,,0.00,121.00,VWS V14.01,2013-03-17 00:08:00,
2013-03-16 18:13:00,51.3,27.8,29.69,North,-999,4.0,6.0,40,0.00,,,0.00,60.00,VWS V14.01,2013-03-17 00:13:00,
2013-03-16 18:18:00,51.3,27.8,29.69,North,-999,3.0,4.0,40,0.00,,,0.00,118.00,VWS V14.01,2013-03-17 00:18:00,
2013-03-16 18:23:00,51.4,29.7,29.69,North,-999,5.0,10.0,43,0.00,,,0.00,127.00,VWS V14.01,2013-03-17 00:23:00,
2013-03-16 18:28:00,51.3,30.1,29.68,North,-999,13.0,13.0,44,0.00,,,0.00,118.00,VWS V14.01,2013-03-17 00:28:00,
2013-03-16 18:33:00,51.1,30.0,29.68,North,-999,7.0,13.0,44,0.00,,,0.00,97.00,VWS V14.01,2013-03-17 00:33:00,
2013-03-16 18:38:00,51.0,30.4,29.68,North,-999,7.0,9.0,45,0.00,,,0.00,63.00,VWS V14.01,2013-03-17 00:38:00,
2013-03-16 18:43:00,50.7,30.7,29.68,North,-999,5.0,12.0,46,0.00,,,0.00,54.00,VWS V14.01,2013-03-17 00:43:00,
2013-03-16 18:48:00,50.4,30.4,29.69,North,-999,3.0,7.0,46,0.00,,,0.00,37.00,VWS V14.01,2013-03-17 00:48:00,
2013-03-16 18:53:00,50.2,30.2,29.68,North,-999,6.0,10.0,46,0.00,,,0.00,30.00,VWS V14.01,2013-03-17 00:53:00,
2013-03-16 18:58:00,50.0,30.0,29.68,North,-999,2.0,3.0,46,0.00,,,0.00,21.00,VWS V14.01,2013-03-17 00:58:00,
2013-03-16 19:03:00,49.7,30.3,29.68,North,-999,6.0,9.0,47,0.00,,,0.00,16.00,VWS V14.01,2013-03-17 01:03:00,
2013-03-16 19:08:00,49.4,30.0,29.68,North,-999,5.0,5.0,47,0.00,,,0.00,12.00,VWS V14.01,2013-03-17 01:08:00,
2013-03-16 19:13:00,49.0,29.7,29.68,North,-999,9.0,9.0,47,0.00,,,0.00,9.00,VWS V14.01,2013-03-17 01:13:00,
2013-03-16 19:18:00,48.7,29.9,29.68,North,-999,10.0,12.0,48,0.00,,,0.00,5.00,VWS V14.01,2013-03-17 01:18:00,
2013-03-16 19:23:00,48.3,31.0,29.68,North,-999,5.0,12.0,51,0.00,,,0.00,0.00,VWS V14.01,2013-03-17 01:23:00,
2013-03-16 19:28:00,47.9,32.1,29.68,North,-999,6.0,7.0,54,0.00,,,0.00,0.00,VWS V14.01,2013-03-17 01:28:00,
2013-03-16 19:33:00,47.5,32.2,29.68,North,-999,5.0,7.0,55,0.00,,,0.00,0.00,VWS V14.01,2013-03-17 01:33:00,
2013-03-16 19:38:00,47.1,32.2,29.68,North,-999,4.0,5.0,56,0.00,,,0.00,0.00,VWS V14.01,2013-03-17 01:38:00,
2013-03-16 19:43:00,46.8,32.0,29.68,North,-999,4.0,7.0,56,0.00,,,0.00,0.00,VWS V14.01,2013-03-17 01:43:00,
2013-03-16 19:48:00,46.4,31.6,29.68,North,-999,0.0,0.0,56,0.00,,,0.00,0.00,VWS V14.01,2013-03-17 01:48:00,
2013-03-16 19:53:00,46.2,31.4,29.68,North,-999,0.0,6.0,56,0.00,,,0.00,0.00,VWS V14.01,2013-03-17 01:53:00,
2013-03-16 19:58:00,46.0,31.6,29.68,North,-999,7.0,7.0,57,0.00,,,0.00,0.00,VWS V14.01,2013-03-17 01:58:00,
2013-03-16 20:03:00,45.9,31.5,29.68,North,-999,5.0,9.0,57,0.00,,,0.00,0.00,VWS V14.01,2013-03-17 02:03:00,
2013-03-16 20:08:00,45.7,31.4,29.67,North,-999,4.0,4.0,57,0.00,,,0.00,0.00,VWS V14.01,2013-03-17 02:08:00,
2013-03-16 20:13:00,45.6,31.7,29.68,North,-999,7.0,10.0,58,0.00,,,0.00,0.00,VWS V14.01,2013-03-17 02:13:00,
2013-03-16 20:18:00,45.6,31.7,29.67,North,-999,9.0,11.0,58,0.00,,,0.00,0.00,VWS V14.01,2013-03-17 02:18:00,
2013-03-16 20:23:00,45.5,31.6,29.67,North,-999,7.0,10.0,58,0.00,,,0.00,0.00,VWS V14.01,2013-03-17 02:23:00,
2013-03-16 20:28:00,45.2,31.3,29.67,North,-999,4.0,10.0,58,0.00,,,0.00,0.00,VWS V14.01,2013-03-17 02:28:00,
2013-03-16 20:33:00,44.9,31.5,29.67,North,-999,7.0,11.0,59,0.00,,,0.00,0.00,VWS V14.01,2013-03-17 02:33:00,
2013-03-16 20:38:00,44.7,31.3,29.67,North,-999,9.0,12.0,59,0.00,,,0.00,0.00,VWS V14.01,2013-03-17 02:38:00,
2013-03-16 20:43:00,44.6,31.2,29.67,North,-999,5.0,11.0,59,0.00,,,0.00,0.00,VWS V14.01,2013-03-17 02:43:00,
2013-03-16 20:48:00,44.5,31.1,29.67,North,-999,0.0,11.0,59,0.00,,,0.00,0.00,VWS V14.01,2013-03-17 02:48:00,
2013-03-16 20:53:00,44.2,31.2,29.66,North,-999,1.0,6.0,60,0.00,,,0.00,0.00,VWS V14.01,2013-03-17 02:53:00,
2013-03-16 20:58:00,43.8,30.8,29.66,North,-999,6.0,6.0,60,0.00,,,0.00,0.00,VWS V14.01,2013-03-17 02:58:00,
2013-03-16 21:03:00,43.4,30.9,29.66,North,-999,0.0,5.0,61,0.00,,,0.00,0.00,VWS V14.01,2013-03-17 03:03:00,
2013-03-16 21:08:00,43.1,30.6,29.66,North,-999,0.0,5.0,61,0.00,,,0.00,0.00,VWS V14.01,2013-03-17 03:08:00,
2013-03-16 21:13:00,42.9,30.8,29.67,North,-999,0.0,7.0,62,0.00,,,0.00,0.00,VWS V14.01,2013-03-17 03:13:00,
2013-03-16 21:18:00,42.5,30.0,29.66,North,-999,0.0,7.0,61,0.00,,,0.00,0.00,VWS V14.01,2013-03-17 03:18:00,
2013-03-16 21:23:00,42.2,30.1,29.66,North,-999,0.0,0.0,62,0.00,,,0.00,0.00,VWS V14.01,2013-03-17 03:23:00,
2013-03-16 21:28:00,42.0,29.9,29.66,North,-999,0.0,0.0,62,0.00,,,0.00,0.00,VWS V14.01,2013-03-17 03:28:00,
2013-03-16 21:33:00,41.8,30.1,29.65,North,-999,0.0,0.0,63,0.00,,,0.00,0.00,VWS V14.01,2013-03-17 03:33:00,
2013-03-16 21:38:00,41.7,30.4,29.65,North,-999,0.0,0.0,64,0.00,,,0.00,0.00,VWS V14.01,2013-03-17 03:38:00,
2013-03-16 21:43:00,41.5,30.2,29.65,North,-999,0.0,0.0,64,0.00,,,0.00,0.00,VWS V14.01,2013-03-17 03:43:00,
2013-03-16 21:48:00,41.0,28.6,29.65,North,-999,0.0,0.0,61,0.00,,,0.00,0.00,VWS V14.01,2013-03-17 03:48:00,
2013-03-16 21:53:00,40.3,29.1,29.65,North,-999,0.0,0.0,64,0.00,,,0.00,0.00,VWS V14.01,2013-03-17 03:53:00,
2013-03-16 21:58:00,39.5,28.4,29.65,North,-999,0.0,0.0,64,0.00,,,0.00,0.00,VWS V14.01,2013-03-17 03:58:00,
2013-03-16 22:00:00,39.4,29.0,29.65,North,-999,0.0,0.0,66,0.00,,,0.00,0.00,VWS V14.01,2013-03-17 04:00:00,
2013-03-16 22:05:00,39.2,28.8,29.64,North,-999,0.0,0.0,66,0.00,,,0.00,0.00,VWS V14.01,2013-03-17 04:05:00,
2013-03-16 22:10:00,39.0,29.0,29.64,North,-999,0.0,0.0,67,0.00,,,0.00,0.00,VWS V14.01,2013-03-17 04:10:00,
2013-03-16 22:15:00,38.8,26.9,29.64,North,-999,0.0,0.0,62,0.00,,,0.00,0.00,VWS V14.01,2013-03-17 04:15:00,
2013-03-16 22:20:00,38.3,27.2,29.64,North,-999,0.0,0.0,64,0.00,,,0.00,0.00,VWS V14.01,2013-03-17 04:20:00,
2013-03-16 22:25:00,37.6,27.3,29.64,North,-999,0.0,0.0,66,0.00,,,0.00,0.00,VWS V14.01,2013-03-17 04:25:00,
2013-03-16 22:30:00,37.5,26.1,29.64,North,-999,0.0,0.0,63,0.00,,,0.00,0.00,VWS V14.01,2013-03-17 04:30:00,
2013-03-16 22:35:00,37.1,26.8,29.64,North,-999,0.0,0.0,66,0.00,,,0.00,0.00,VWS V14.01,2013-03-17 04:35:00,
2013-03-16 22:40:00,36.5,27.7,29.64,North,-999,4.0,6.0,70,0.00,,,0.00,0.00,VWS V14.01,2013-03-17 04:40:00,
2013-03-16 22:45:00,36.7,27.1,29.63,North,-999,0.0,6.0,68,0.00,,,0.00,0.00,VWS V14.01,2013-03-17 04:45:00,
2013-03-16 22:50:00,36.2,26.0,29.63,North,-999,0.0,0.0,66,0.00,,,0.00,0.00,VWS V14.01,2013-03-17 04:50:00,
2013-03-16 22:55:00,35.7,26.5,29.63,North,-999,0.0,0.0,69,0.00,,,0.00,0.00,VWS V14.01,2013-03-17 04:55:00,
2013-03-16 23:00:00,35.7,26.2,29.62,North,-999,0.0,0.0,68,0.00,,,0.00,0.00,VWS V14.01,2013-03-17 05:00:00,
2013-03-16 23:05:00,35.7,26.2,29.62,North,-999,0.0,0.0,68,0.00,,,0.00,0.00,VWS V14.01,2013-03-17 05:05:00,
2013-03-16 23:10:00,34.5,22.5,29.61,North,-999,0.0,0.0,61,0.00,,,0.00,0.00,VWS V14.01,2013-03-17 05:10:00,
2013-03-16 23:15:00,33.8,22.9,29.61,North,-999,0.0,0.0,64,0.00,,,0.00,0.00,VWS V14.01,2013-03-17 05:15:00,
2013-03-16 23:20:00,33.7,24.6,29.61,North,-999,0.0,0.0,69,0.00,,,0.00,0.00,VWS V14.01,2013-03-17 05:20:00,
2013-03-16 23:25:00,34.3,26.2,29.61,North,-999,0.0,0.0,72,0.00,,,0.00,0.00,VWS V14.01,2013-03-17 05:25:00,
2013-03-16 23:30:00,35.2,26.4,29.61,North,-999,0.0,0.0,70,0.00,,,0.00,0.00,VWS V14.01,2013-03-17 05:30:00,
2013-03-16 23:35:00,36.0,25.4,29.60,North,-999,0.0,4.0,65,0.00,,,0.00,0.00,VWS V14.01,2013-03-17 05:35:00,
2013-03-16 23:40:00,36.6,25.2,29.60,North,-999,0.0,0.0,63,0.00,,,0.00,0.00,VWS V14.01,2013-03-17 05:40:00,
2013-03-16 23:45:00,36.9,25.1,29.60,North,-999,0.0,0.0,62,0.00,,,0.00,0.00,VWS V14.01,2013-03-17 05:45:00,
2013-03-16 23:50:00,36.9,25.1,29.60,North,-999,3.0,3.0,62,0.00,,,0.00,0.00,VWS V14.01,2013-03-17 05:50:00,
2013-03-16 23:55:00,37.7,25.1,29.59,North,-999,9.0,10.0,60,0.00,,,0.00,0.00,VWS V14.01,2013-03-17 05:55:00,